Location: Chircca
(13.7944°S, 72.0608°W)
Time: 06:21:30
(UTC+00:00)

GPS 2-12 Rocket1 - Pass Details

Date: 14 July 2020
Orbit: 586 x 652 km, 20.0° (Epoch: 14 August)

Event Time Altitude Azimuth Distance (km) Brightness Sun altitude
Exits shadow 10:27:36 - 302° (WNW) 2,673 6.0 -11.1°
Reaches altitude 10° 10:29:33 10° 308° (NW) 1,950 5.3 -10.6°
Maximum altitude 10:33:53 43° 19° (NNE) 838 4.1 -9.7°
Drops below altitude 10° 10:38:09 10° 91° (E) 1,920 6.9 -8.7°
Sets 10:40:33 0° 98° (E) 2,815 7.7 -8.1°
